Zurück zum Katalog

COSMOS 663

AktivMilitärPO
NORAD 7349·PAYLOAD·🇷🇺 Russia

Gestartet Jun 27, 1974 von Plesetsk Cosmodrome

Loading…

Nächste Überflüge (nächste 24 Stunden)

TLE

AktuellSource: Space-Track

Epoche: Sep 14, 2026, 09:00 UTC

1 07349U 74048A   26257.37569054  .00000052  00000-0  38327-4 0  9991
2 07349  82.9472 108.6005 0025185   4.8498 167.9882 13.75866545620471

Verfolge COSMOS 663 in Echtzeit mit AllMySat

Download on the App Store